Track STARLINK-2318 now! 10-day predictions STARLINK-2318 is classified as:
1 48025U 21024BA 21109.83334491 .00091570 00000-0 65063-3 0 9991 2 48025 53.0483 72.6247 0000799 80.9162 171.5951 15.73165047 4960